Time,TemperatureF,DewpointF,PressureIn,WindDirection,WindDirectionDegrees,WindSpeedMPH,WindSpeedGustMPH,Humidity,HourlyPrecipIn,Conditions,Clouds,dailyrainin,SoftwareType,DateUTC
2013-02-18 00:00:00,5.4,2.8,30.33,NW,313,1.0,3.0,89,0.00,,,0.00,meteohub,2013-02-18 05:00:00,
2013-02-18 00:01:00,5.5,3.0,30.33,NW,313,2.0,3.0,89,0.00,,,0.00,meteohub,2013-02-18 05:01:00,
2013-02-18 00:02:00,5.5,3.0,30.33,NW,313,2.0,3.0,89,0.00,,,0.00,meteohub,2013-02-18 05:02:00,
2013-02-18 00:07:00,5.5,2.5,30.33,NW,314,2.0,3.0,87,0.00,,,0.00,meteohub,2013-02-18 05:07:00,
2013-02-18 00:12:00,5.4,2.3,30.33,NW,314,3.0,3.0,87,0.00,,,0.00,meteohub,2013-02-18 05:12:00,
2013-02-18 00:17:00,5.0,1.9,30.34,NW,314,2.0,3.0,87,0.00,,,0.00,meteohub,2013-02-18 05:17:00,
2013-02-18 00:23:00,4.8,1.8,30.34,NW,314,1.0,3.0,87,0.00,,,0.00,meteohub,2013-02-18 05:23:00,
2013-02-18 00:28:00,4.8,2.1,30.34,NW,314,3.0,3.0,88,0.00,,,0.00,meteohub,2013-02-18 05:28:00,
2013-02-18 00:33:00,4.3,1.2,30.34,NW,315,3.0,4.0,87,0.00,,,0.00,meteohub,2013-02-18 05:33:00,
2013-02-18 00:38:00,3.9,0.9,30.34,NW,315,2.0,4.0,87,0.00,,,0.00,meteohub,2013-02-18 05:38:00,
2013-02-18 00:43:00,3.7,0.7,30.34,NW,315,2.0,4.0,87,0.00,,,0.00,meteohub,2013-02-18 05:43:00,
2013-02-18 00:48:00,3.7,0.7,30.35,NW,315,2.0,4.0,87,0.00,,,0.00,meteohub,2013-02-18 05:48:00,
2013-02-18 00:53:00,3.7,0.7,30.34,NW,315,1.0,3.0,87,0.00,,,0.00,meteohub,2013-02-18 05:53:00,
2013-02-18 00:58:00,3.7,1.0,30.34,NW,315,1.0,3.0,88,0.00,,,0.00,meteohub,2013-02-18 05:58:00,
2013-02-18 01:03:00,4.1,1.4,30.35,NW,315,2.0,3.0,88,0.00,,,0.00,meteohub,2013-02-18 06:03:00,
2013-02-18 01:08:00,4.5,1.9,30.34,NW,315,2.0,3.0,89,0.00,,,0.00,meteohub,2013-02-18 06:08:00,
2013-02-18 01:14:00,5.2,2.7,30.34,NW,315,2.0,3.0,89,0.00,,,0.00,meteohub,2013-02-18 06:14:00,
2013-02-18 01:19:00,5.0,1.9,30.34,NW,315,2.0,3.0,87,0.00,,,0.00,meteohub,2013-02-18 06:19:00,
2013-02-18 01:24:00,4.6,1.6,30.34,NW,315,1.0,3.0,87,0.00,,,0.00,meteohub,2013-02-18 06:24:00,
2013-02-18 01:29:00,4.8,2.1,30.34,NW,315,1.0,3.0,88,0.00,,,0.00,meteohub,2013-02-18 06:29:00,
2013-02-18 01:34:00,5.5,3.0,30.34,NW,315,1.0,3.0,89,0.00,,,0.00,meteohub,2013-02-18 06:34:00,
2013-02-18 01:39:00,5.5,2.8,30.34,NW,315,1.0,2.0,88,0.00,,,0.00,meteohub,2013-02-18 06:39:00,
2013-02-18 01:44:00,5.9,3.4,30.34,NW,315,1.0,3.0,89,0.00,,,0.00,meteohub,2013-02-18 06:44:00,
2013-02-18 01:49:00,6.1,3.4,30.35,NW,315,2.0,3.0,88,0.00,,,0.00,meteohub,2013-02-18 06:49:00,
2013-02-18 01:54:00,6.3,3.6,30.35,NW,315,1.0,3.0,88,0.00,,,0.00,meteohub,2013-02-18 06:54:00,
2013-02-18 01:59:00,6.4,3.7,30.35,NW,315,2.0,3.0,88,0.00,,,0.00,meteohub,2013-02-18 06:59:00,
2013-02-18 02:04:00,5.9,2.7,30.35,NW,315,2.0,3.0,86,0.00,,,0.00,meteohub,2013-02-18 07:04:00,
2013-02-18 02:09:00,5.9,3.2,30.35,NW,315,1.0,3.0,88,0.00,,,0.00,meteohub,2013-02-18 07:09:00,
2013-02-18 02:14:00,6.1,3.0,30.35,NW,315,2.0,3.0,87,0.00,,,0.00,meteohub,2013-02-18 07:14:00,
2013-02-18 02:19:00,6.1,3.4,30.35,NW,315,0.0,3.0,88,0.00,,,0.00,meteohub,2013-02-18 07:19:00,
2013-02-18 02:25:00,6.3,3.6,30.35,NW,315,1.0,3.0,88,0.00,,,0.00,meteohub,2013-02-18 07:25:00,
2013-02-18 02:30:00,6.1,3.0,30.35,NW,315,2.0,3.0,87,0.00,,,0.00,meteohub,2013-02-18 07:30:00,
2013-02-18 02:35:00,5.7,2.7,30.35,NW,315,0.0,2.0,87,0.00,,,0.00,meteohub,2013-02-18 07:35:00,
2013-02-18 02:40:00,6.1,3.4,30.35,NW,315,0.0,2.0,88,0.00,,,0.00,meteohub,2013-02-18 07:40:00,
2013-02-18 02:45:00,6.6,4.1,30.35,NW,315,0.0,2.0,89,0.00,,,0.00,meteohub,2013-02-18 07:45:00,
2013-02-18 02:50:00,7.0,4.1,30.35,NW,315,0.0,2.0,88,0.00,,,0.00,meteohub,2013-02-18 07:50:00,
2013-02-18 02:55:00,7.3,4.5,30.35,NW,315,0.0,2.0,88,0.00,,,0.00,meteohub,2013-02-18 07:55:00,
2013-02-18 03:00:00,7.9,4.8,30.35,NW,315,0.0,2.0,87,0.00,,,0.00,meteohub,2013-02-18 08:00:00,
2013-02-18 03:05:00,8.2,5.0,30.35,NW,315,0.0,2.0,86,0.00,,,0.00,meteohub,2013-02-18 08:05:00,
2013-02-18 03:10:00,8.4,5.2,30.35,NW,315,0.0,1.0,86,0.00,,,0.00,meteohub,2013-02-18 08:10:00,
2013-02-18 03:16:00,8.8,5.2,30.35,NW,315,0.0,1.0,85,0.00,,,0.00,meteohub,2013-02-18 08:16:00,
2013-02-18 03:21:00,9.0,5.2,30.35,NW,315,2.0,2.0,84,0.00,,,0.00,meteohub,2013-02-18 08:21:00,
2013-02-18 03:26:00,9.1,5.0,30.35,NW,315,0.0,2.0,83,0.00,,,0.00,meteohub,2013-02-18 08:26:00,
2013-02-18 03:31:00,9.3,5.0,30.35,NW,315,1.0,3.0,82,0.00,,,0.00,meteohub,2013-02-18 08:31:00,
2013-02-18 03:36:00,9.3,5.0,30.34,NW,315,0.0,3.0,82,0.00,,,0.00,meteohub,2013-02-18 08:36:00,
2013-02-18 03:41:00,9.3,5.0,30.34,NW,315,0.0,2.0,82,0.00,,,0.00,meteohub,2013-02-18 08:41:00,
2013-02-18 03:46:00,9.3,5.0,30.34,NW,315,0.0,1.0,82,0.00,,,0.00,meteohub,2013-02-18 08:46:00,
2013-02-18 03:51:00,9.3,5.0,30.34,NW,315,0.0,0.0,82,0.00,,,0.00,meteohub,2013-02-18 08:51:00,
2013-02-18 03:56:00,9.7,5.4,30.34,NW,315,0.0,1.0,82,0.00,,,0.00,meteohub,2013-02-18 08:56:00,
2013-02-18 04:01:00,9.9,5.5,30.34,NW,315,0.0,2.0,82,0.00,,,0.00,meteohub,2013-02-18 09:01:00,
2013-02-18 04:06:00,9.9,5.5,30.34,NW,315,0.0,2.0,82,0.00,,,0.00,meteohub,2013-02-18 09:06:00,
2013-02-18 04:12:00,9.9,5.2,30.34,NW,315,0.0,1.0,81,0.00,,,0.00,meteohub,2013-02-18 09:12:00,
2013-02-18 04:17:00,10.0,5.4,30.34,NW,315,0.0,1.0,81,0.00,,,0.00,meteohub,2013-02-18 09:17:00,
2013-02-18 04:22:00,10.2,5.5,30.34,NW,315,0.0,2.0,81,0.00,,,0.00,meteohub,2013-02-18 09:22:00,
2013-02-18 04:27:00,10.6,5.9,30.34,NW,315,0.0,2.0,81,0.00,,,0.00,meteohub,2013-02-18 09:27:00,
2013-02-18 04:32:00,10.8,5.9,30.34,NW,315,0.0,2.0,80,0.00,,,0.00,meteohub,2013-02-18 09:32:00,
2013-02-18 04:37:00,10.6,5.4,30.34,NW,315,0.0,0.0,79,0.00,,,0.00,meteohub,2013-02-18 09:37:00,
2013-02-18 04:42:00,10.4,5.2,30.33,NW,315,0.0,1.0,79,0.00,,,0.00,meteohub,2013-02-18 09:42:00,
2013-02-18 04:47:00,10.2,5.4,30.34,NW,315,0.0,1.0,80,0.00,,,0.00,meteohub,2013-02-18 09:47:00,
2013-02-18 04:52:00,10.2,5.5,30.34,NW,315,0.0,1.0,81,0.00,,,0.00,meteohub,2013-02-18 09:52:00,
2013-02-18 04:57:00,10.2,5.5,30.34,NW,315,0.0,1.0,81,0.00,,,0.00,meteohub,2013-02-18 09:57:00,
2013-02-18 05:02:00,10.2,5.5,30.33,NW,315,0.0,1.0,81,0.00,,,0.00,meteohub,2013-02-18 10:02:00,
2013-02-18 05:07:00,10.4,5.7,30.34,NW,315,0.0,1.0,81,0.00,,,0.00,meteohub,2013-02-18 10:07:00,
2013-02-18 05:12:00,10.6,5.9,30.34,NW,315,0.0,1.0,81,0.00,,,0.00,meteohub,2013-02-18 10:12:00,
2013-02-18 05:17:00,10.6,5.9,30.34,NW,315,0.0,1.0,81,0.00,,,0.00,meteohub,2013-02-18 10:17:00,
2013-02-18 05:22:00,10.6,5.7,30.34,NW,315,0.0,0.0,80,0.00,,,0.00,meteohub,2013-02-18 10:22:00,
2013-02-18 05:27:00,10.2,5.4,30.34,NW,315,0.0,0.0,80,0.00,,,0.00,meteohub,2013-02-18 10:27:00,
2013-02-18 05:32:00,10.0,5.2,30.34,NW,315,0.0,0.0,80,0.00,,,0.00,meteohub,2013-02-18 10:32:00,
2013-02-18 05:38:00,10.2,5.4,30.34,NW,315,0.0,0.0,80,0.00,,,0.00,meteohub,2013-02-18 10:38:00,
2013-02-18 05:43:00,10.4,5.7,30.35,NW,315,1.0,3.0,81,0.00,,,0.00,meteohub,2013-02-18 10:43:00,
2013-02-18 05:48:00,10.6,5.7,30.35,NW,315,0.0,3.0,80,0.00,,,0.00,meteohub,2013-02-18 10:48:00,
2013-02-18 05:53:00,10.6,5.7,30.35,NW,315,0.0,3.0,80,0.00,,,0.00,meteohub,2013-02-18 10:53:00,
2013-02-18 05:58:00,10.6,5.7,30.35,NW,315,0.0,3.0,80,0.00,,,0.00,meteohub,2013-02-18 10:58:00,
2013-02-18 06:03:00,10.6,5.7,30.35,NW,315,0.0,2.0,80,0.00,,,0.00,meteohub,2013-02-18 11:03:00,
2013-02-18 06:08:00,10.2,5.4,30.35,NW,315,0.0,2.0,80,0.00,,,0.00,meteohub,2013-02-18 11:08:00,
2013-02-18 06:13:00,10.2,5.4,30.35,NW,315,0.0,1.0,80,0.00,,,0.00,meteohub,2013-02-18 11:13:00,
2013-02-18 06:19:00,10.0,5.4,30.35,NW,315,0.0,1.0,81,0.00,,,0.00,meteohub,2013-02-18 11:19:00,
2013-02-18 06:24:00,10.0,5.4,30.35,NW,315,0.0,1.0,81,0.00,,,0.00,meteohub,2013-02-18 11:24:00,
2013-02-18 06:30:00,9.9,5.5,30.35,NW,315,0.0,0.0,82,0.00,,,0.00,meteohub,2013-02-18 11:30:00,
2013-02-18 06:35:00,9.9,5.5,30.34,NW,315,0.0,1.0,82,0.00,,,0.00,meteohub,2013-02-18 11:35:00,
2013-02-18 06:40:00,9.7,5.4,30.35,NW,315,0.0,2.0,82,0.00,,,0.00,meteohub,2013-02-18 11:40:00,
2013-02-18 06:45:00,9.9,5.7,30.34,NW,315,1.0,2.0,83,0.00,,,0.00,meteohub,2013-02-18 11:45:00,
2013-02-18 06:50:00,9.9,5.7,30.34,NW,313,0.0,2.0,83,0.00,,,0.00,meteohub,2013-02-18 11:50:00,
2013-02-18 06:55:00,9.9,5.7,30.34,NW,308,0.0,2.0,83,0.00,,,0.00,meteohub,2013-02-18 11:55:00,
2013-02-18 07:00:00,10.0,5.9,30.34,NW,306,0.0,4.0,83,0.00,,,0.00,meteohub,2013-02-18 12:00:00,
2013-02-18 07:05:00,10.0,5.9,30.34,WSW,248,0.0,4.0,83,0.00,,,0.00,meteohub,2013-02-18 12:05:00,
2013-02-18 07:10:00,9.5,4.8,30.34,SSW,199,0.0,4.0,81,0.00,,,0.00,meteohub,2013-02-18 12:10:00,
2013-02-18 07:16:00,8.8,4.1,30.34,SSW,200,0.0,4.0,81,0.00,,,0.00,meteohub,2013-02-18 12:16:00,
2013-02-18 07:21:00,8.4,4.3,30.34,SSW,200,0.0,4.0,83,0.00,,,0.00,meteohub,2013-02-18 12:21:00,
2013-02-18 07:26:00,8.1,3.7,30.34,SSW,200,0.0,2.0,82,0.00,,,0.00,meteohub,2013-02-18 12:26:00,
2013-02-18 07:31:00,7.7,3.6,30.34,SSW,200,0.0,2.0,83,0.00,,,0.00,meteohub,2013-02-18 12:31:00,
2013-02-18 07:36:00,7.3,3.6,30.33,SSW,200,0.0,2.0,84,0.00,,,0.00,meteohub,2013-02-18 12:36:00,
2013-02-18 07:41:00,6.6,2.5,30.34,South,174,0.0,4.0,83,0.00,,,0.00,meteohub,2013-02-18 12:41:00,
2013-02-18 07:46:00,6.4,2.7,30.33,SSW,196,2.0,4.0,84,0.00,,,0.00,meteohub,2013-02-18 12:46:00,
2013-02-18 07:51:00,6.6,3.0,30.33,SW,223,0.0,4.0,85,0.00,,,0.00,meteohub,2013-02-18 12:51:00,
2013-02-18 07:56:00,7.2,3.9,30.34,SW,224,1.0,3.0,86,0.00,,,0.00,meteohub,2013-02-18 12:56:00,
2013-02-18 08:01:00,7.5,4.3,30.33,SW,224,0.0,3.0,86,0.00,,,0.00,meteohub,2013-02-18 13:01:00,
2013-02-18 08:06:00,7.9,4.3,30.33,SSW,211,4.0,4.0,85,0.00,,,0.00,meteohub,2013-02-18 13:06:00,
2013-02-18 08:11:00,8.1,4.5,30.33,SW,219,3.0,5.0,85,0.00,,,0.00,meteohub,2013-02-18 13:11:00,
2013-02-18 08:16:00,8.4,4.8,30.33,SSW,206,4.0,5.0,85,0.00,,,0.00,meteohub,2013-02-18 13:16:00,
2013-02-18 08:21:00,9.0,5.2,30.33,SW,225,1.0,6.0,84,0.00,,,0.00,meteohub,2013-02-18 13:21:00,
2013-02-18 08:27:00,9.5,5.7,30.33,WSW,244,2.0,6.0,84,0.00,,,0.00,meteohub,2013-02-18 13:27:00,
2013-02-18 08:32:00,10.0,5.9,30.33,SW,221,5.0,7.0,83,0.00,,,0.00,meteohub,2013-02-18 13:32:00,
2013-02-18 08:37:00,10.8,6.4,30.33,SW,220,3.0,7.0,82,0.00,,,0.00,meteohub,2013-02-18 13:37:00,
2013-02-18 08:42:00,11.3,6.8,30.33,West,264,6.0,9.0,82,0.00,,,0.00,meteohub,2013-02-18 13:42:00,
2013-02-18 08:47:00,11.8,7.2,30.33,SSW,210,2.0,9.0,81,0.00,,,0.00,meteohub,2013-02-18 13:47:00,
2013-02-18 08:52:00,12.6,7.5,30.33,South,182,3.0,9.0,80,0.00,,,0.00,meteohub,2013-02-18 13:52:00,
2013-02-18 08:57:00,12.9,7.7,30.33,WSW,248,2.0,8.0,79,0.00,,,0.00,meteohub,2013-02-18 13:57:00,
2013-02-18 09:02:00,13.6,8.1,30.33,SSW,203,3.0,8.0,78,0.00,,,0.00,meteohub,2013-02-18 14:02:00,
2013-02-18 09:07:00,14.4,8.8,30.33,SSW,209,7.0,8.0,78,0.00,,,0.00,meteohub,2013-02-18 14:07:00,
2013-02-18 09:13:00,15.1,9.0,30.32,South,190,3.0,8.0,76,0.00,,,0.00,meteohub,2013-02-18 14:13:00,
2013-02-18 09:18:00,15.8,9.3,30.32,SW,229,5.0,9.0,75,0.00,,,0.00,meteohub,2013-02-18 14:18:00,
2013-02-18 09:23:00,16.5,9.3,30.31,SSW,192,4.0,9.0,73,0.00,,,0.00,meteohub,2013-02-18 14:23:00,
2013-02-18 09:28:00,16.7,9.5,30.30,SSW,198,9.0,10.0,73,0.00,,,0.00,meteohub,2013-02-18 14:28:00,
2013-02-18 09:33:00,17.1,9.9,30.30,SW,221,4.0,10.0,73,0.00,,,0.00,meteohub,2013-02-18 14:33:00,
2013-02-18 09:38:00,17.4,9.7,30.30,SW,217,5.0,10.0,71,0.00,,,0.00,meteohub,2013-02-18 14:38:00,
2013-02-18 09:43:00,17.8,9.7,30.30,SSW,207,6.0,10.0,70,0.00,,,0.00,meteohub,2013-02-18 14:43:00,
2013-02-18 09:48:00,18.1,10.0,30.30,SSW,209,3.0,11.0,70,0.00,,,0.00,meteohub,2013-02-18 14:48:00,
2013-02-18 09:53:00,18.7,10.2,30.30,SW,231,6.0,11.0,69,0.00,,,0.00,meteohub,2013-02-18 14:53:00,
2013-02-18 09:58:00,19.0,10.2,30.30,SSW,213,2.0,11.0,68,0.00,,,0.00,meteohub,2013-02-18 14:58:00,
2013-02-18 10:04:00,19.6,10.4,30.30,NW,312,1.0,13.0,67,0.00,,,0.00,meteohub,2013-02-18 15:04:00,
2013-02-18 10:09:00,19.9,10.4,30.29,NW,318,8.0,13.0,66,0.00,,,0.00,meteohub,2013-02-18 15:09:00,
2013-02-18 10:14:00,20.1,10.2,30.29,WSW,249,9.0,11.0,65,0.00,,,0.00,meteohub,2013-02-18 15:14:00,
2013-02-18 10:19:00,20.3,10.4,30.29,SSW,193,12.0,12.0,65,0.00,,,0.00,meteohub,2013-02-18 15:19:00,
2013-02-18 10:24:00,19.8,10.2,30.29,WSW,248,6.0,11.0,66,0.00,,,0.00,meteohub,2013-02-18 15:24:00,
2013-02-18 10:29:00,19.6,10.8,30.29,South,186,8.0,13.0,68,0.00,,,0.00,meteohub,2013-02-18 15:29:00,
2013-02-18 10:34:00,19.8,10.9,30.28,SSW,212,5.0,13.0,68,0.00,,,0.00,meteohub,2013-02-18 15:34:00,
2013-02-18 10:39:00,19.8,10.9,30.28,WSW,244,7.0,12.0,68,0.00,,,0.00,meteohub,2013-02-18 15:39:00,
2013-02-18 10:44:00,19.8,10.6,30.28,SW,220,10.0,11.0,67,0.00,,,0.00,meteohub,2013-02-18 15:44:00,
2013-02-18 10:50:00,19.9,11.5,30.27,South,184,4.0,17.0,69,0.00,,,0.00,meteohub,2013-02-18 15:50:00,
2013-02-18 10:55:00,20.5,11.7,30.27,SSW,200,7.0,17.0,68,0.00,,,0.00,meteohub,2013-02-18 15:55:00,
2013-02-18 11:00:00,21.2,12.4,30.27,SSW,205,7.0,17.0,68,0.00,,,0.00,meteohub,2013-02-18 16:00:00,
2013-02-18 11:05:00,21.7,12.2,30.27,SSW,192,7.0,14.0,66,0.00,,,0.00,meteohub,2013-02-18 16:05:00,
2013-02-18 11:10:00,21.9,12.0,30.27,SW,228,6.0,17.0,65,0.00,,,0.00,meteohub,2013-02-18 16:10:00,
2013-02-18 11:15:00,23.0,12.9,30.27,SSW,208,4.0,17.0,65,0.00,,,0.00,meteohub,2013-02-18 16:15:00,
2013-02-18 11:20:00,23.5,12.4,30.26,West,271,6.0,14.0,62,0.00,,,0.00,meteohub,2013-02-18 16:20:00,
2013-02-18 11:25:00,23.7,12.6,30.26,SW,231,13.0,16.0,62,0.00,,,0.00,meteohub,2013-02-18 16:25:00,
2013-02-18 11:30:00,24.3,13.1,30.25,SSW,207,3.0,16.0,62,0.00,,,0.00,meteohub,2013-02-18 16:30:00,
2013-02-18 11:35:00,25.0,12.7,30.25,SW,218,8.0,14.0,59,0.00,,,0.00,meteohub,2013-02-18 16:35:00,
2013-02-18 11:41:00,25.5,12.7,30.25,SSW,202,7.0,15.0,58,0.00,,,0.00,meteohub,2013-02-18 16:41:00,
2013-02-18 11:46:00,25.9,13.1,30.24,South,184,3.0,17.0,58,0.00,,,0.00,meteohub,2013-02-18 16:46:00,
2013-02-18 11:51:00,26.2,12.7,30.24,SSE,156,10.0,17.0,56,0.00,,,0.00,meteohub,2013-02-18 16:51:00,
2013-02-18 11:56:00,26.2,12.7,30.23,SSW,198,10.0,17.0,56,0.00,,,0.00,meteohub,2013-02-18 16:56:00,
2013-02-18 12:01:00,26.6,12.6,30.23,South,184,12.0,17.0,55,0.00,,,0.00,meteohub,2013-02-18 17:01:00,
2013-02-18 12:06:00,26.8,12.4,30.22,SSW,212,8.0,17.0,54,0.00,,,0.00,meteohub,2013-02-18 17:06:00,
2013-02-18 12:12:00,27.1,13.1,30.22,SW,227,2.0,18.0,55,0.00,,,0.00,meteohub,2013-02-18 17:12:00,
2013-02-18 12:17:00,27.9,13.8,30.22,SSW,194,5.0,18.0,55,0.00,,,0.00,meteohub,2013-02-18 17:17:00,
2013-02-18 12:22:00,28.6,13.6,30.22,SW,227,3.0,17.0,53,0.00,,,0.00,meteohub,2013-02-18 17:22:00,
2013-02-18 12:27:00,28.9,14.4,30.21,SSW,192,13.0,13.0,54,0.01,,,0.01,meteohub,2013-02-18 17:27:00,
2013-02-18 12:32:00,28.9,14.0,30.21,SW,236,6.0,13.0,53,0.01,,,0.01,meteohub,2013-02-18 17:32:00,
2013-02-18 12:37:00,29.1,14.2,30.20,SW,217,2.0,13.0,53,0.01,,,0.01,meteohub,2013-02-18 17:37:00,
2013-02-18 12:42:00,29.1,14.2,30.19,South,179,8.0,18.0,53,0.01,,,0.01,meteohub,2013-02-18 17:42:00,
2013-02-18 12:47:00,28.9,14.0,30.19,South,187,5.0,18.0,53,0.01,,,0.01,meteohub,2013-02-18 17:47:00,
2013-02-18 12:52:00,29.1,14.2,30.19,SSW,211,5.0,18.0,53,0.01,,,0.01,meteohub,2013-02-18 17:52:00,
2013-02-18 12:58:00,29.7,15.1,30.18,South,184,13.0,17.0,54,0.01,,,0.01,meteohub,2013-02-18 17:58:00,
2013-02-18 13:03:00,29.7,14.5,30.17,SSE,164,4.0,17.0,53,0.01,,,0.01,meteohub,2013-02-18 18:03:00,
2013-02-18 13:08:00,29.7,15.1,30.17,SW,232,6.0,17.0,54,0.01,,,0.01,meteohub,2013-02-18 18:08:00,
2013-02-18 13:13:00,29.8,15.3,30.17,SW,232,9.0,17.0,54,0.01,,,0.01,meteohub,2013-02-18 18:13:00,
2013-02-18 13:18:00,30.6,16.0,30.17,SW,218,7.0,16.0,54,0.01,,,0.01,meteohub,2013-02-18 18:18:00,
2013-02-18 13:24:00,30.7,15.6,30.17,SSW,192,6.0,16.0,53,0.01,,,0.01,meteohub,2013-02-18 18:24:00,
2013-02-18 13:29:00,30.7,15.6,30.16,WSW,242,15.0,18.0,53,0.00,,,0.01,meteohub,2013-02-18 18:29:00,
2013-02-18 13:34:00,30.7,15.6,30.15,SSW,193,5.0,18.0,53,0.01,,,0.02,meteohub,2013-02-18 18:34:00,
2013-02-18 13:39:00,30.7,15.6,30.15,SSW,212,10.0,18.0,53,0.01,,,0.02,meteohub,2013-02-18 18:39:00,
2013-02-18 13:44:00,30.9,16.2,30.14,WSW,241,10.0,19.0,54,0.01,,,0.02,meteohub,2013-02-18 18:44:00,
2013-02-18 13:49:00,31.1,16.3,30.14,SW,225,22.0,22.0,54,0.01,,,0.02,meteohub,2013-02-18 18:49:00,
2013-02-18 13:55:00,31.3,16.5,30.14,SW,220,13.0,24.0,54,0.01,,,0.02,meteohub,2013-02-18 18:55:00,
2013-02-18 14:00:00,31.5,16.3,30.13,SW,219,9.0,24.0,53,0.01,,,0.02,meteohub,2013-02-18 19:00:00,
2013-02-18 14:05:00,31.8,16.7,30.13,SSW,207,9.0,23.0,53,0.01,,,0.02,meteohub,2013-02-18 19:05:00,
2013-02-18 14:11:00,32.0,16.9,30.12,South,176,5.0,19.0,53,0.01,,,0.02,meteohub,2013-02-18 19:11:00,
2013-02-18 14:16:00,32.0,16.9,30.12,SW,229,6.0,18.0,53,0.01,,,0.02,meteohub,2013-02-18 19:16:00,
2013-02-18 14:21:00,32.2,17.4,30.12,SSW,192,6.0,18.0,54,0.01,,,0.02,meteohub,2013-02-18 19:21:00,
2013-02-18 14:26:00,32.5,17.2,30.12,SW,232,4.0,18.0,53,0.01,,,0.02,meteohub,2013-02-18 19:26:00,
2013-02-18 14:31:00,33.1,17.8,30.11,SW,217,6.0,18.0,53,0.00,,,0.02,meteohub,2013-02-18 19:31:00,
2013-02-18 14:36:00,33.3,18.0,30.11,SSW,205,7.0,17.0,53,0.00,,,0.02,meteohub,2013-02-18 19:36:00,
2013-02-18 14:41:00,33.3,18.0,30.11,SSW,206,7.0,18.0,53,0.00,,,0.02,meteohub,2013-02-18 19:41:00,
2013-02-18 14:46:00,33.4,18.1,30.11,SSW,211,9.0,18.0,53,0.00,,,0.02,meteohub,2013-02-18 19:46:00,
2013-02-18 14:51:00,33.6,18.3,30.11,SSE,168,3.0,19.0,53,0.00,,,0.02,meteohub,2013-02-18 19:51:00,
2013-02-18 14:57:00,34.0,18.7,30.11,SSW,203,4.0,19.0,53,0.00,,,0.02,meteohub,2013-02-18 19:57:00,
2013-02-18 15:02:00,34.0,18.7,30.11,WSW,252,6.0,19.0,53,0.00,,,0.02,meteohub,2013-02-18 20:02:00,
2013-02-18 15:07:00,34.0,18.7,30.11,SSW,197,11.0,17.0,53,0.00,,,0.02,meteohub,2013-02-18 20:07:00,
2013-02-18 15:12:00,34.0,19.0,30.12,South,186,6.0,17.0,54,0.00,,,0.02,meteohub,2013-02-18 20:12:00,
2013-02-18 15:17:00,34.0,18.7,30.11,South,182,10.0,16.0,53,0.00,,,0.02,meteohub,2013-02-18 20:17:00,
2013-02-18 15:23:00,34.2,19.2,30.11,SW,229,8.0,16.0,54,0.01,,,0.03,meteohub,2013-02-18 20:23:00,
2013-02-18 15:28:00,34.7,19.8,30.11,SW,223,8.0,16.0,54,0.01,,,0.03,meteohub,2013-02-18 20:28:00,
2013-02-18 15:33:00,34.9,19.9,30.11,SSW,196,8.0,16.0,54,0.01,,,0.03,meteohub,2013-02-18 20:33:00,
2013-02-18 15:38:00,34.9,19.4,30.11,WSW,254,10.0,14.0,53,0.01,,,0.03,meteohub,2013-02-18 20:38:00,
2013-02-18 15:43:00,34.9,20.3,30.10,South,181,5.0,15.0,55,0.01,,,0.03,meteohub,2013-02-18 20:43:00,
2013-02-18 15:48:00,35.1,20.5,30.10,WSW,251,4.0,15.0,55,0.01,,,0.03,meteohub,2013-02-18 20:48:00,
2013-02-18 15:53:00,35.2,20.3,30.10,SW,227,3.0,15.0,54,0.01,,,0.03,meteohub,2013-02-18 20:53:00,
2013-02-18 15:59:00,35.4,20.5,30.10,SSW,202,7.0,11.0,54,0.01,,,0.03,meteohub,2013-02-18 20:59:00,
2013-02-18 16:04:00,35.6,21.0,30.09,SSW,206,9.0,13.0,55,0.01,,,0.03,meteohub,2013-02-18 21:04:00,
2013-02-18 16:09:00,36.0,21.4,30.09,SSW,211,6.0,14.0,55,0.01,,,0.03,meteohub,2013-02-18 21:09:00,
2013-02-18 16:14:00,36.0,21.4,30.09,SSW,207,4.0,14.0,55,0.01,,,0.03,meteohub,2013-02-18 21:14:00,
2013-02-18 16:19:00,36.1,21.6,30.09,WSW,248,2.0,13.0,55,0.01,,,0.03,meteohub,2013-02-18 21:19:00,
2013-02-18 16:25:00,36.3,21.7,30.09,SW,225,7.0,13.0,55,0.00,,,0.03,meteohub,2013-02-18 21:25:00,
2013-02-18 16:30:00,36.5,21.9,30.08,SW,222,5.0,13.0,55,0.00,,,0.03,meteohub,2013-02-18 21:30:00,
2013-02-18 16:35:00,36.7,22.5,30.08,SW,217,6.0,13.0,56,0.00,,,0.03,meteohub,2013-02-18 21:35:00,
2013-02-18 16:40:00,36.5,22.3,30.08,West,281,6.0,15.0,56,0.00,,,0.03,meteohub,2013-02-18 21:40:00,
2013-02-18 16:45:00,36.5,21.9,30.08,WSW,257,11.0,15.0,55,0.00,,,0.03,meteohub,2013-02-18 21:45:00,
2013-02-18 16:50:00,36.5,21.9,30.08,SSW,192,5.0,14.0,55,0.00,,,0.03,meteohub,2013-02-18 21:50:00,
2013-02-18 16:55:00,36.3,22.1,30.08,SSW,197,7.0,14.0,56,0.00,,,0.03,meteohub,2013-02-18 21:55:00,
2013-02-18 17:01:00,36.3,22.1,30.07,SSE,165,4.0,13.0,56,0.00,,,0.03,meteohub,2013-02-18 22:01:00,
2013-02-18 17:06:00,36.5,22.3,30.06,SSW,202,9.0,16.0,56,0.00,,,0.03,meteohub,2013-02-18 22:06:00,
2013-02-18 17:11:00,36.5,22.3,30.06,South,178,4.0,16.0,56,0.00,,,0.03,meteohub,2013-02-18 22:11:00,
2013-02-18 17:16:00,36.5,22.6,30.06,SSW,209,5.0,16.0,57,0.00,,,0.03,meteohub,2013-02-18 22:16:00,
2013-02-18 17:22:00,36.5,22.6,30.06,SW,234,5.0,15.0,57,0.00,,,0.03,meteohub,2013-02-18 22:22:00,
2013-02-18 17:27:00,36.5,22.6,30.06,South,178,4.0,15.0,57,0.00,,,0.03,meteohub,2013-02-18 22:27:00,
2013-02-18 17:32:00,36.3,22.5,30.06,SSW,203,4.0,15.0,57,0.00,,,0.03,meteohub,2013-02-18 22:32:00,
2013-02-18 17:37:00,36.3,22.5,30.06,South,188,5.0,11.0,57,0.00,,,0.03,meteohub,2013-02-18 22:37:00,
2013-02-18 17:42:00,36.3,23.0,30.06,South,184,5.0,11.0,58,0.00,,,0.03,meteohub,2013-02-18 22:42:00,
2013-02-18 17:47:00,36.3,23.0,30.06,SSW,204,6.0,12.0,58,0.00,,,0.03,meteohub,2013-02-18 22:47:00,
2013-02-18 17:52:00,36.1,22.8,30.06,SW,230,5.0,13.0,58,0.00,,,0.03,meteohub,2013-02-18 22:52:00,
2013-02-18 17:58:00,36.1,23.2,30.06,South,190,4.0,13.0,59,0.00,,,0.03,meteohub,2013-02-18 22:58:00,
2013-02-18 18:03:00,36.1,23.2,30.05,WSW,250,2.0,13.0,59,0.00,,,0.03,meteohub,2013-02-18 23:03:00,
2013-02-18 18:08:00,36.1,23.2,30.05,SW,235,8.0,12.0,59,0.00,,,0.03,meteohub,2013-02-18 23:08:00,
2013-02-18 18:13:00,36.1,23.2,30.05,SSW,200,7.0,13.0,59,0.00,,,0.03,meteohub,2013-02-18 23:13:00,
2013-02-18 18:18:00,36.1,23.2,30.04,SSW,209,4.0,13.0,59,0.00,,,0.03,meteohub,2013-02-18 23:18:00,
2013-02-18 18:24:00,36.0,23.0,30.04,SW,215,6.0,13.0,59,0.00,,,0.03,meteohub,2013-02-18 23:24:00,
2013-02-18 18:29:00,36.0,23.0,30.04,SW,219,7.0,13.0,59,0.00,,,0.03,meteohub,2013-02-18 23:29:00,
2013-02-18 18:34:00,36.0,23.0,30.04,SSW,212,4.0,12.0,59,0.00,,,0.03,meteohub,2013-02-18 23:34:00,
2013-02-18 18:39:00,36.0,23.0,30.04,SSW,202,3.0,11.0,59,0.00,,,0.03,meteohub,2013-02-18 23:39:00,
2013-02-18 18:44:00,36.0,23.4,30.04,SSW,194,6.0,12.0,60,0.00,,,0.03,meteohub,2013-02-18 23:44:00,
2013-02-18 18:49:00,36.0,23.4,30.03,SW,227,5.0,12.0,60,0.00,,,0.03,meteohub,2013-02-18 23:49:00,
2013-02-18 18:55:00,36.1,23.5,30.03,SSW,209,8.0,12.0,60,0.00,,,0.03,meteohub,2013-02-18 23:55:00,
2013-02-18 19:00:00,36.1,23.5,30.03,SSW,198,5.0,12.0,60,0.00,,,0.03,meteohub,2013-02-19 00:00:00,
2013-02-18 19:05:00,36.1,23.5,30.03,SSW,198,7.0,13.0,60,0.00,,,0.03,meteohub,2013-02-19 00:05:00,
2013-02-18 19:10:00,36.1,24.1,30.03,SSW,212,2.0,11.0,61,0.00,,,0.03,meteohub,2013-02-19 00:10:00,
2013-02-18 19:16:00,36.0,23.4,30.02,WSW,238,5.0,11.0,60,0.00,,,0.03,meteohub,2013-02-19 00:16:00,
2013-02-18 19:21:00,36.0,23.9,30.02,South,173,3.0,10.0,61,0.00,,,0.03,meteohub,2013-02-19 00:21:00,
2013-02-18 19:26:00,36.0,23.9,30.02,SSW,211,5.0,9.0,61,0.00,,,0.03,meteohub,2013-02-19 00:26:00,
2013-02-18 19:31:00,36.0,23.9,30.02,South,183,9.0,11.0,61,0.00,,,0.03,meteohub,2013-02-19 00:31:00,
2013-02-18 19:37:00,36.0,23.9,30.01,SSW,205,7.0,13.0,61,0.00,,,0.03,meteohub,2013-02-19 00:37:00,
2013-02-18 19:42:00,35.8,24.1,30.01,SSW,209,8.0,14.0,62,0.00,,,0.03,meteohub,2013-02-19 00:42:00,
2013-02-18 19:47:00,35.8,24.1,30.01,SW,217,7.0,14.0,62,0.00,,,0.03,meteohub,2013-02-19 00:47:00,
2013-02-18 19:52:00,35.8,24.1,30.01,SSW,207,3.0,12.0,62,0.00,,,0.03,meteohub,2013-02-19 00:52:00,
2013-02-18 19:58:00,35.8,24.1,30.01,SSW,211,3.0,12.0,62,0.00,,,0.03,meteohub,2013-02-19 00:58:00,
2013-02-18 20:03:00,35.8,24.1,30.01,West,264,3.0,10.0,62,0.00,,,0.03,meteohub,2013-02-19 01:03:00,
2013-02-18 20:08:00,35.8,24.4,30.01,SW,225,2.0,10.0,63,0.00,,,0.03,meteohub,2013-02-19 01:08:00,
2013-02-18 20:14:00,35.8,24.4,30.01,South,189,5.0,11.0,63,0.00,,,0.03,meteohub,2013-02-19 01:14:00,
2013-02-18 20:19:00,35.8,24.4,30.00,SW,226,6.0,11.0,63,0.00,,,0.03,meteohub,2013-02-19 01:19:00,
2013-02-18 20:24:00,35.8,24.4,30.00,SSW,211,3.0,10.0,63,0.00,,,0.03,meteohub,2013-02-19 01:24:00,
2013-02-18 20:30:00,35.8,24.4,30.00,WSW,242,8.0,12.0,63,0.00,,,0.03,meteohub,2013-02-19 01:30:00,
2013-02-18 20:35:00,35.8,24.8,30.00,SSW,212,5.0,12.0,64,0.00,,,0.03,meteohub,2013-02-19 01:35:00,
2013-02-18 20:40:00,36.0,25.0,29.99,SSW,211,6.0,10.0,64,0.00,,,0.03,meteohub,2013-02-19 01:40:00,
2013-02-18 20:46:00,36.0,25.0,29.99,SW,225,4.0,10.0,64,0.00,,,0.03,meteohub,2013-02-19 01:46:00,
2013-02-18 20:51:00,36.0,25.3,29.99,SSW,200,3.0,10.0,65,0.00,,,0.03,meteohub,2013-02-19 01:51:00,
2013-02-18 20:56:00,36.0,25.0,29.98,WSW,242,4.0,10.0,64,0.00,,,0.03,meteohub,2013-02-19 01:56:00,
2013-02-18 21:01:00,36.1,25.2,29.98,SSW,196,8.0,10.0,64,0.00,,,0.03,meteohub,2013-02-19 02:01:00,
2013-02-18 21:07:00,36.1,25.2,29.98,SW,216,4.0,12.0,64,0.00,,,0.03,meteohub,2013-02-19 02:07:00,
2013-02-18 21:12:00,36.1,25.2,29.97,South,183,5.0,12.0,64,0.00,,,0.03,meteohub,2013-02-19 02:12:00,
2013-02-18 21:17:00,36.1,25.2,29.96,WSW,238,6.0,12.0,64,0.00,,,0.03,meteohub,2013-02-19 02:17:00,
2013-02-18 21:23:00,36.0,25.3,29.96,SSW,195,6.0,10.0,65,0.00,,,0.03,meteohub,2013-02-19 02:23:00,
2013-02-18 21:28:00,36.0,25.3,29.97,WSW,256,7.0,10.0,65,0.00,,,0.03,meteohub,2013-02-19 02:28:00,
2013-02-18 21:33:00,36.0,25.3,29.96,SW,217,5.0,9.0,65,0.00,,,0.03,meteohub,2013-02-19 02:33:00,
2013-02-18 21:38:00,36.0,25.3,29.96,SSW,211,5.0,8.0,65,0.00,,,0.03,meteohub,2013-02-19 02:38:00,
2013-02-18 21:43:00,36.0,25.7,29.96,SW,224,2.0,7.0,66,0.00,,,0.03,meteohub,2013-02-19 02:43:00,
2013-02-18 21:49:00,36.0,25.7,29.95,SSW,198,3.0,7.0,66,0.00,,,0.03,meteohub,2013-02-19 02:49:00,
2013-02-18 21:54:00,36.1,25.9,29.94,SW,232,5.0,8.0,66,0.00,,,0.03,meteohub,2013-02-19 02:54:00,
2013-02-18 21:59:00,36.1,25.9,29.94,SW,223,2.0,8.0,66,0.00,,,0.03,meteohub,2013-02-19 02:59:00,
2013-02-18 22:05:00,36.1,26.2,29.94,SW,220,4.0,9.0,67,0.00,,,0.03,meteohub,2013-02-19 03:05:00,
2013-02-18 22:10:00,36.1,26.2,29.93,SSW,207,2.0,9.0,67,0.00,,,0.03,meteohub,2013-02-19 03:10:00,
2013-02-18 22:15:00,36.1,26.2,29.93,SSW,211,4.0,9.0,67,0.00,,,0.03,meteohub,2013-02-19 03:15:00,
2013-02-18 22:21:00,36.1,26.2,29.93,SW,218,3.0,9.0,67,0.00,,,0.03,meteohub,2013-02-19 03:21:00,
2013-02-18 22:26:00,36.1,26.2,29.93,South,188,8.0,8.0,67,0.00,,,0.03,meteohub,2013-02-19 03:26:00,
2013-02-18 22:31:00,36.3,26.4,29.92,SSW,211,4.0,8.0,67,0.00,,,0.03,meteohub,2013-02-19 03:31:00,
2013-02-18 22:36:00,36.3,26.8,29.92,SW,215,3.0,8.0,68,0.00,,,0.03,meteohub,2013-02-19 03:36:00,
2013-02-18 22:42:00,36.5,27.0,29.92,SW,225,2.0,9.0,68,0.00,,,0.03,meteohub,2013-02-19 03:42:00,
2013-02-18 22:47:00,36.7,27.1,29.91,SSW,205,2.0,9.0,68,0.00,,,0.03,meteohub,2013-02-19 03:47:00,
2013-02-18 22:52:00,36.9,27.3,29.91,SW,214,6.0,9.0,68,0.00,,,0.03,meteohub,2013-02-19 03:52:00,
2013-02-18 22:57:00,37.0,27.5,29.91,SW,215,2.0,9.0,68,0.00,,,0.03,meteohub,2013-02-19 03:57:00,
2013-02-18 23:02:00,37.4,27.9,29.91,SW,214,5.0,9.0,68,0.00,,,0.03,meteohub,2013-02-19 04:02:00,
2013-02-18 23:07:00,37.6,28.0,29.90,SW,217,5.0,11.0,68,0.00,,,0.03,meteohub,2013-02-19 04:07:00,
2013-02-18 23:12:00,37.6,28.0,29.89,SSW,212,3.0,11.0,68,0.00,,,0.03,meteohub,2013-02-19 04:12:00,
2013-02-18 23:17:00,37.8,28.2,29.88,SSW,209,5.0,10.0,68,0.00,,,0.03,meteohub,2013-02-19 04:17:00,
2013-02-18 23:22:00,37.8,28.2,29.88,SW,227,7.0,10.0,68,0.00,,,0.03,meteohub,2013-02-19 04:22:00,
2013-02-18 23:27:00,37.8,28.2,29.87,South,175,7.0,9.0,68,0.00,,,0.03,meteohub,2013-02-19 04:27:00,
2013-02-18 23:32:00,37.8,28.2,29.87,SW,217,3.0,9.0,68,0.00,,,0.03,meteohub,2013-02-19 04:32:00,
2013-02-18 23:37:00,37.8,28.2,29.87,SSE,161,5.0,10.0,68,0.00,,,0.03,meteohub,2013-02-19 04:37:00,
2013-02-18 23:42:00,37.8,28.6,29.86,SSW,198,5.0,11.0,69,0.00,,,0.03,meteohub,2013-02-19 04:42:00,
2013-02-18 23:47:00,37.8,28.6,29.86,WSW,242,6.0,11.0,69,0.00,,,0.03,meteohub,2013-02-19 04:47:00,
2013-02-18 23:52:00,37.8,28.6,29.86,SW,218,7.0,11.0,69,0.00,,,0.03,meteohub,2013-02-19 04:52:00,
2013-02-18 23:57:00,37.8,28.6,29.86,South,184,2.0,10.0,69,0.00,,,0.03,meteohub,2013-02-19 04:57:00,